• In Hungary
  • List of Countries
  • For 7 days
  • Water Temperature
  • Satellite Maps
  • Weather Map
  • News
  • Weather Widgets
  • user-avatar
    Login

    Hourly Weather Rochester

    Today, 18 October, Wednesday

    Time Temperature Precipitation Wind Pressure Humidity
    00:00 +11°C° 0 mm 7 mps 751 mmHg 71%
    01:00 +11°C° 0 mm 7 mps 752 mmHg 73%
    02:00 +10°C° 0 mm 6 mps 752 mmHg 75%
    03:00 +10°C° 0 mm 6 mps 752 mmHg 78%
    04:00 +9°C° 0 mm 6 mps 752 mmHg 80%
    05:00 +9°C° 0 mm 5 mps 753 mmHg 82%
    06:00 +9°C° 0 mm 5 mps 753 mmHg 84%
    07:00 +8°C° 0 mm 5 mps 753 mmHg 86%
    08:00 +12°C° 0 mm 5 mps 753 mmHg 79%
    09:00 +14°C° 0 mm 5 mps 753 mmHg 72%
    10:00 +16°C° 0 mm 5 mps 753 mmHg 65%
    11:00 +17°C° 0 mm 5 mps 753 mmHg 61%
    12:00 +20°C° 0 mm 5 mps 753 mmHg 57%
    13:00 +21°C° 0 mm 4 mps 752 mmHg 53%
    14:00 +20°C° 0 mm 4 mps 752 mmHg 54%
    15:00 +20°C° 0 mm 3 mps 752 mmHg 56%
    16:00 +20°C° 0 mm 3 mps 752 mmHg 57%
    17:00 +18°C° 0 mm 3 mps 752 mmHg 62%
    18:00 +16°C° 0 mm 3 mps 752 mmHg 67%
    19:00 +12°C° 0 mm 3 mps 752 mmHg 72%
    20:00 +12°C° 0 mm 4 mps 752 mmHg 71%
    21:00 +12°C° 0 mm 4 mps 751 mmHg 70%
    22:00 +12°C° 0 mm 5 mps 751 mmHg 69%
    23:00 +10°C° 0 mm 5 mps 751 mmHg 69%

    Tomorrow, 19 October, Thursday

    Time Temperature Precipitation Wind Pressure Humidity
    00:00 +10°C° 0 mm 5 mps 751 mmHg 69%
    01:00 +10°C° 0 mm 5 mps 751 mmHg 69%
    02:00 +10°C° 0 mm 5 mps 750 mmHg 69%
    03:00 +10°C° 0 mm 6 mps 750 mmHg 68%
    04:00 +10°C° 0 mm 6 mps 750 mmHg 68%
    05:00 +10°C° 0 mm 6 mps 750 mmHg 67%
    06:00 +10°C° 0 mm 6 mps 750 mmHg 67%
    07:00 +10°C° 0 mm 7 mps 750 mmHg 66%
    08:00 +12°C° 0 mm 7 mps 749 mmHg 62%
    09:00 +15°C° 0 mm 7 mps 749 mmHg 58%
    10:00 +17°C° 0 mm 8 mps 749 mmHg 53%
    11:00 +18°C° 0 mm 8 mps 748 mmHg 52%
    12:00 +20°C° 0 mm 8 mps 748 mmHg 51%
    13:00 +21°C° 0 mm 8 mps 748 mmHg 50%
    14:00 +20°C° 0 mm 8 mps 748 mmHg 55%
    15:00 +18°C° 0 mm 7 mps 747 mmHg 59%
    16:00 +18°C° 0 mm 7 mps 747 mmHg 64%
    17:00 +17°C° 0 mm 7 mps 748 mmHg 70%
    18:00 +15°C° 0 mm 6 mps 748 mmHg 75%
    19:00 +14°C° 0 mm 6 mps 749 mmHg 81%
    20:00 +13°C° 0 mm 5 mps 749 mmHg 85%
    21:00 +13°C° 0 mm 5 mps 749 mmHg 88%
    22:00 +12°C° 0 mm 4 mps 750 mmHg 91%
    23:00 +11°C° 0 mm 4 mps 750 mmHg 89%

    Day after tomorrow, 20 October, Friday

    Time Temperature Precipitation Wind Pressure Humidity
    00:00 +10°C° 0 mm 5 mps 750 mmHg 88%
    01:00 +9°C° 0 mm 5 mps 750 mmHg 86%
    02:00 +8°C° 0 mm 4 mps 751 mmHg 84%
    03:00 +8°C° 0 mm 4 mps 751 mmHg 81%
    04:00 +7°C° 0 mm 4 mps 751 mmHg 78%
    05:00 +7°C° 0 mm 4 mps 752 mmHg 78%
    06:00 +7°C° 0 mm 4 mps 752 mmHg 78%
    07:00 +8°C° 0 mm 3 mps 753 mmHg 78%
    08:00 +10°C° 0 mm 3 mps 753 mmHg 71%
    09:00 +11°C° 0 mm 3 mps 754 mmHg 64%
    10:00 +13°C° 0 mm 3 mps 754 mmHg 56%
    11:00 +14°C° 0 mm 3 mps 754 mmHg 54%
    12:00 +16°C° 0 mm 2 mps 754 mmHg 51%
    13:00 +16°C° 0 mm 2 mps 753 mmHg 49%
    14:00 +16°C° 0 mm 2 mps 753 mmHg 51%
    15:00 +16°C° 0 mm 2 mps 753 mmHg 53%
    16:00 +15°C° 0 mm 2 mps 753 mmHg 56%
    17:00 +13°C° 0 mm 1 mps 753 mmHg 61%
    18:00 +11°C° 0 mm 1 mps 754 mmHg 67%
    19:00 +9°C° 0 mm 1 mps 754 mmHg 72%
    20:00 +9°C° 0 mm 1 mps 754 mmHg 73%
    21:00 +8°C° 0 mm 2 mps 754 mmHg 74%
    22:00 +8°C° 0 mm 2 mps 754 mmHg 75%
    23:00 +8°C° 0 mm 2 mps 754 mmHg 75%

    21 October, Saturday

    Time Temperature Precipitation Wind Pressure Humidity
    00:00 +8°C° 0 mm 2 mps 754 mmHg 76%
    01:00 +8°C° 0 mm 3 mps 754 mmHg 76%
    02:00 +8°C° 0 mm 3 mps 754 mmHg 75%
    03:00 +8°C° 0 mm 3 mps 754 mmHg 75%
    04:00 +8°C° 0 mm 3 mps 754 mmHg 74%
    05:00 +8°C° 0 mm 3 mps 754 mmHg 73%
    06:00 +8°C° 0 mm 3 mps 755 mmHg 72%
    07:00 +8°C° 0 mm 3 mps 755 mmHg 71%
    08:00 +11°C° 0 mm 3 mps 755 mmHg 65%
    09:00 +13°C° 0 mm 3 mps 755 mmHg 59%
    10:00 +17°C° 0 mm 3 mps 754 mmHg 53%
    11:00 +19°C° 0 mm 2 mps 754 mmHg 50%
    12:00 +20°C° 0 mm 2 mps 754 mmHg 47%
    13:00 +23°C° 0 mm 2 mps 753 mmHg 45%
    14:00 +21°C° 0 mm 2 mps 753 mmHg 49%
    15:00 +21°C° 0 mm 2 mps 753 mmHg 53%
    16:00 +21°C° 0 mm 2 mps 753 mmHg 57%
    17:00 +19°C° 0 mm 2 mps 753 mmHg 63%
    18:00 +17°C° 0 mm 3 mps 753 mmHg 70%
    19:00 +14°C° 0 mm 3 mps 753 mmHg 76%
    20:00 +14°C° 0 mm 3 mps 753 mmHg 77%
    21:00 +13°C° 0 mm 4 mps 753 mmHg 78%
    22:00 +13°C° 0 mm 4 mps 753 mmHg 80%
    23:00 +13°C° 0 mm 4 mps 753 mmHg 81%

    22 October, Sunday

    Time Temperature Precipitation Wind Pressure Humidity
    00:00 +13°C° 0 mm 4 mps 753 mmHg 82%
    01:00 +13°C° 0 mm 5 mps 752 mmHg 84%
    02:00 +12°C° 0 mm 4 mps 752 mmHg 85%
    03:00 +12°C° 0 mm 4 mps 752 mmHg 86%
    04:00 +12°C° 0 mm 4 mps 752 mmHg 87%
    05:00 +12°C° 0 mm 4 mps 753 mmHg 86%
    06:00 +12°C° 0 mm 4 mps 753 mmHg 85%
    07:00 +12°C° 0 mm 4 mps 753 mmHg 84%
    08:00 +15°C° 0 mm 4 mps 753 mmHg 75%
    09:00 +18°C° 0 mm 4 mps 752 mmHg 67%
    10:00 +21°C° 0 mm 4 mps 752 mmHg 58%
    11:00 +22°C° 0 mm 4 mps 752 mmHg 55%
    12:00 +23°C° 0 mm 5 mps 751 mmHg 52%
    13:00 +26°C° 0 mm 5 mps 751 mmHg 49%
    14:00 +25°C° 0 mm 4 mps 750 mmHg 52%
    15:00 +23°C° 0 mm 4 mps 750 mmHg 55%
    16:00 +23°C° 0 mm 4 mps 750 mmHg 59%
    17:00 +21°C° 0 mm 5 mps 750 mmHg 61%
    18:00 +20°C° 0 mm 5 mps 749 mmHg 64%
    19:00 +19°C° 0 mm 6 mps 749 mmHg 67%
    20:00 +17°C° 0 mm 6 mps 749 mmHg 66%
    21:00 +17°C° 0 mm 5 mps 749 mmHg 65%
    22:00 +17°C° 0 mm 5 mps 749 mmHg 64%
    23:00 +17°C° 0.1 mm 5 mps 749 mmHg 64%

    23 October, Monday

    Time Temperature Precipitation Wind Pressure Humidity
    00:00 +17°C° 0.1 mm 5 mps 748 mmHg 64%
    01:00 +19°C° 0.1 mm 5 mps 748 mmHg 64%
    02:00 +17°C° 1.4 mm 5 mps 748 mmHg 71%
    03:00 +16°C° 1.4 mm 5 mps 747 mmHg 79%
    04:00 +15°C° 1.4 mm 5 mps 747 mmHg 86%
    05:00 +15°C° 0.3 mm 5 mps 747 mmHg 87%
    06:00 +15°C° 0.3 mm 5 mps 746 mmHg 87%
    07:00 +15°C° 0.3 mm 5 mps 746 mmHg 88%
    08:00 +16°C° 0.1 mm 5 mps 746 mmHg 86%
    09:00 +17°C° 0.1 mm 5 mps 745 mmHg 85%
    10:00 +17°C° 0.1 mm 5 mps 745 mmHg 84%
    11:00 +19°C° 0.1 mm 5 mps 744 mmHg 83%
    12:00 +19°C° 0.1 mm 5 mps 744 mmHg 83%
    13:00 +19°C° 0.1 mm 5 mps 743 mmHg 82%
    14:00 +19°C° 0.1 mm 5 mps 743 mmHg 82%
    15:00 +19°C° 0.1 mm 5 mps 742 mmHg 81%
    16:00 +19°C° 0.1 mm 5 mps 742 mmHg 80%
    17:00 +17°C° 0.1 mm 5 mps 742 mmHg 84%
    18:00 +17°C° 0.1 mm 4 mps 741 mmHg 88%
    19:00 +15°C° 0.1 mm 4 mps 741 mmHg 92%
    20:00 +14°C° 0 mm 5 mps 741 mmHg 90%
    21:00 +14°C° 0 mm 5 mps 741 mmHg 87%
    22:00 +13°C° 0 mm 5 mps 741 mmHg 85%
    23:00 +13°C° 0 mm 5 mps 741 mmHg 82%
    Show more